Location: ??
(35.5672°N, 139.6509°E)
Time: 10:39:58
(UTC+00:00)

ARGOS - Pass Details

Date: 03 August 2024
Orbit: 818 x 834 km, 98.4° (Epoch: 12 September)

Event Time Altitude Azimuth Distance (km) Brightness Sun altitude
Rises 19:17:37 0° 16° (NNE) 3,374 7.0 -7.2°
Reaches altitude 10° 19:20:00 10° 19° (NNE) 2,435 6.3 -6.8°
Maximum altitude 19:25:22 67° 101° (E) 893 3.6 -5.8°
Drops below altitude 10° 19:30:40 10° 184° (S) 2,409 5.3 -4.8°
Sets 19:33:01 0° 187° (S) 3,336 6.0 -4.4°
